Regional Weather Roundup
Issued by NWS Wakefield, VA

Home | Current Version | Previous Version | Graphics & Text | Print | Product List | Glossary On
Versions: 1 2 3 4 5 6 7 8 9 10 11 12 13 14 15 16 17 18 19 20 21 22 23 24 25 26 27 28
000
ASUS41 KAKQ 171415
RWRAKQ

REGIONAL WEATHER ROUNDUP
NATIONAL WEATHER SERVICE WAKEFIELD VA
1000 AM EDT TUE OCT 17 2017

Note: "fair" indicates few or no clouds below 12,000 feet with no
significant weather and/or obstructions to visibility. * = Denotes
station may not report precipitation (e.g., rain,snow,etc.),
thunder or fog.

VAZ042-051-052>054-056-171500-
NORTHERN VIRGINIA

CITY           SKY/WX    TMP DP  RH WIND       PRES   REMARKS
WASH NATIONAL  SUNNY     53  35  50 NE10      30.41
DULLES         MOSUNNY   51  37  58 N3        30.40
FORT BELVOIR   NOT AVBL
QUANTICO       SUNNY     54  38  54 N9        30.41R
FREDERICKSBRG* SUNNY     51  37  59 N6        30.39S
STAFFORD*      SUNNY     51  37  58 N6        30.44R
WARRENTON      SUNNY     53  35  49 N7        30.40R
CULPEPER*      SUNNY     52  36  54 N7        30.41S
MANASSAS*      SUNNY     52  39  61 N5        30.41R
LEESBURG*      SUNNY     52  37  58 CALM      30.41S
WINCHESTER     SUNNY     48  36  61 NW6       30.39S
FRONT ROYAL*   SUNNY     48  39  71 CALM      30.39S
LURAY*         SUNNY     46  41  81 CALM      30.40S
$$

VAZ048-049-060>072-079>083-171500-
CENTRAL AND SOUTH CENTRAL VIRGINIA

CITY           SKY/WX    TMP DP  RH WIND       PRES   REMARKS
RICHMOND       MOSUNNY   54  37  52 N12       30.38R
CHESTERFIELD*  NOT AVBL
PETERSBURG*    DRIZZLE   51  40  65 N8        30.38R
HANOVER        SUNNY     52  37  56 N8        30.40R
TAPPAHANNOCK*  MOSUNNY   54  29  38 N10G17    30.38R
QUINTON*       FAIR      51  41  66 N7        30.37R
CHARLOTTSVILLE SUNNY     52  43  71 CALM      30.40
GORDONSVILLE*  SUNNY     51  37  57 N8        30.39S
ORANGE*        SUNNY     50  36  57 N6        30.40R
LOUISA*        SUNNY     52  37  58 N7        30.39R
BUMPASS*       FAIR      51  37  58 N6        30.39R
FARMVILLE*     SUNNY     53  41  64 NE8       30.39R
CREWE*         FAIR      51  39  63 NE3       30.38S
FORT PICKETT*  FAIR      51  41  69 N8        30.38R
CHASE CITY*    FAIR      53  36  53 NE6       30.38R
CLARKSVILLE*   FAIR      52  36  54 NE8       30.38R
SOUTH HILL*    SUNNY     50  42  73 NE5       30.43R
LAWRENCEVILLE* FAIR      52  41  66 NE6       30.37R
EMPORIA*       SUNNY     52  43  71 N10G16    30.38R
$$

VAZ088>098-171500-
SOUTHEAST VIRGINIA

CITY           SKY/WX    TMP DP  RH WIND       PRES   REMARKS
NORFOLK        PTSUNNY   57  43  59 N18G26    30.33
VIRGINIA BEACH MOSUNNY   55  37  50 N15G22    30.32R
NORFOLK NAVAL  PTSUNNY   56  41  57 N17G28    30.35R
WEST POINT*    SUNNY     53  43  68 N3        30.38S
SALUDA*        FAIR      53  40  63 N12       30.35S
NEWPORT NEWS   SUNNY     55  41  59 N12       30.34R
LANGLEY AFB    NOT AVBL
FORT EUSTIS    NOT AVBL
WILLIAMSBURG*  SUNNY     54  45  71 N5G16     30.36R
HR EXEC AP*    NOT AVBL
FRANKLIN*      SUNNY     54  45  71 N10       30.35S HAZE
US460-WAKEFLD  SUNNY     54  45  71 N8        30.35S
$$

VAZ020-022-025-037-045-171500-
WEST CENTRAL AND SOUTHWEST VIRGINIA

CITY           SKY/WX    TMP DP  RH WIND       PRES   REMARKS
STAUNTON*      SUNNY     43  37  79 CALM      30.42R
WAYNESBORO*    SUNNY     46  38  74 CALM      30.40R
HOT SPRINGS VA SUNNY     42  28  55 CALM      30.36R
LYNCHBURG      SUNNY     51  40  65 NE5       30.39R
DANVILLE       SUNNY     53  39  59 NE13      30.39
SOUTH BOSTON*  FAIR      53  35  51 NE8       30.39R
MARTINSVILLE   SUNNY     51  42  71 CALM      30.41R
ROANOKE        SUNNY     51  41  68 CALM      30.42R
BLACKSBURG     SUNNY     47  42  80 CALM      30.41S
DUBLIN*        SUNNY     47  40  76 CALM      30.40S
MARION*        SUNNY     49  37  62 SE3       30.41S
HILLSVILLE*    SUNNY     45  33  61 CALM      30.37R
RICHLANDS*     FAIR      46  37  71 CALM      30.39R
WISE*          SUNNY     46  37  71 NE5       30.40R
ABINGDON*      SUNNY     48  42  77 E5        30.39R
$$

MDZ021>025-VAZ099-100-171500-
SOUTHERN MARYLAND AND THE DELMARVA PENINSULA

CITY           SKY/WX    TMP DP  RH WIND       PRES   REMARKS
PATUXENT RIVER MOSUNNY   52  37  56 NE14G20   30.37R
BAY BRIDGE APT SUNNY     50  36  57 N8        30.38S
LEONARDTOWN    NOT AVBL
DOVER          NOT AVBL
GEORGETOWN     SUNNY     53  36  52 N13       30.36R
EASTON         SUNNY     50  34  53 N9        30.41
CAMBRIDGE      SUNNY     50  36  57 N12       30.37S
SALISBURY      SUNNY     50  38  63 N10       30.35R
OCEAN CITY     PTSUNNY   53  42  66 NE14G21   30.34
WALLOPS ISLAND MOSUNNY   50  40  68 N16       30.34S
ACCOMACK*      SUNNY     52  38  58 N12G18    30.34R
$$

NCZ012>017-030>032-171500-
NORTH CENTRAL AND EASTERN NORTH CAROLINA

CITY           SKY/WX    TMP DP  RH WIND       PRES   REMARKS
ROANOKE RAPIDS FAIR      52  43  71 N9        30.35R
RALEIGH        MOSUNNY   53  38  56 NE10G20   30.36
ELIZABETH CITY SUNNY     58  47  66 N21       30.31R
AHOSKIE*       SUNNY     52  44  75 N8        30.35R
EDENTON*       SUNNY     56  47  72 N10       30.32R
CURRITUCK*     MOSUNNY   57  46  64 N14G24    30.32R HAZE
KILL DEVIL HLS PTSUNNY   60  45  57 N10G20    30.27R
MANTEO         MOSUNNY  N/A N/A N/A NE14G24   30.29R
CAPE HATTERAS  MOSUNNY   63  47  55 NE16G29   30.25
TARBORO*       NOT AVBL
GOLDSBORO      CLOUDY    53  42  67 NE9       30.32R
WASHINGTON     CLOUDY    55  45  69 N9        30.32R
GREENVILLE     CLOUDY    52  45  76 N9        30.33R
NEW BERN       SUNNY     55  46  71 N12       30.31R
WILMINGTON     CLOUDY    58  43  57 N12       30.29
$$

VAZ048-171500-
ELSEWHERE

CITY           SKY/WX    TMP DP  RH WIND       PRES   REMARKS
HARRISBURG PA  SUNNY     50  37  61 CALM      30.38R
BALTIMORE      MOSUNNY   51  34  52 N8        30.39R
ANNAPOLIS      SUNNY     53  41  63 N13       30.39R
ANDREWS AFB    NOT AVBL
PHILADELPHIA   SUNNY     49  33  54 N10       30.37S
HENDERSON NC   SUNNY     50  35  56 NE9G16    30.37R
GREENSBORO     MOSUNNY   53  41  63 NE12      30.37R
ROCKY MOUNT    SUNNY     54  44  69 N13       30.35
$$

VAZ100-171500-
MARINE

STATION/POSITION TIME  TEMP    WIND        PRES    WAVE   SWELL
                       AIR SEA DIR/SP/G            HT/PER HT/PER
                 (UTC) (F)     (DEG/KT/KT) (MB)    (FT/S) (FT/S)
BRANDYWINE LGT   1342   50      30/ 18/ 21 1028.0R
CAPE MAY NJ      1342   49 64   20/  6/ 12 1027.2R
LEWES DE         1342   51 61   40/ 17/ 20 1027.4R
15NM E FENWICK I 1350   53 68  360/ 17/ 25 1026.7R   5/ 5   2/10
OCEAN-CITY-INLET 1342   53 67   40/ 11/ 19 1027.5R
WACHAPREAGUE VA  1342   51 63   10/  6/ 14 1027.3R
THOMAS POINT MD  1400   50 68   20/ 14/ 16   N/A
COVE POINT MD    1342   50      50/ 13/ 20 1029.2R
SOLOMONS ISLAND  1342   51 70   30/ 10/ 16 1028.1R
BISHOPS HEAD MD  1342   50 57   20/  9/ 18 1028.4R
PINEY POINT MD   1336           10/  7/  9   N/A
CAMBRIDGE MD     1342   50 67              1029.3R
LEWISETTA VA     1342   52 62   50/ 11/ 17 1028.3R
RAPPAHANNOCK LGT 1336           10/ 22/ 26 1027.9R
YORK RVR RNG VA  1342   55      20/ 22/ 27 1027.6R
YORKTOWN VA      1336   54 71   10/ 17/ 21 1027.2R
DOMINION TERM VA 1336   55      20/ 12/ 19 1027.6R
KIPTOPEKE VA     1336      67   40/  9/ 14   N/A
CAPE HENRY VA    1336   53      20/ 21/ 26   N/A
WILLOUBY STN VA  1336   55     360/ 17/ 21 1027.2R
S CRANEY ISL VA  1336   57      20/ 17/ 24 1026.7R
CAPE HENRY BUOY  1330      71                N/A     6/ 7   2/11
CAPE CHARLES BUO 1321      70                N/A     5/ 7
64NM E OF VA BCH 1350   59 67  360/ 19/ 25 1024.8R   9/ 8
DUCK PIER NC     1336   60 69   10/ 20/ 25 1024.9R
44100 DUCK FRF   1335      71                N/A     9/ 8   2/11
44056 DUCK FRF   1330      71                N/A     8/ 8   2/11
OREGON INLET NC  1336   61 68   20/ 17/ 23 1024.8R
HATTERAS NC      1336   62 69   40/ 19/ 24 1024.1R
DIAMOND SHLS NC  1350   65 81   20/ 25/ 29 1022.8R   9/ 8   5/17
CAPE LOOKOUT NC  1400   62      10/ 18/ 22 1024.0R
$$




USA.gov is the U.S. government's official web portal to all federal, state and local government web resources and services.